Hourly Data Report for October 14, 2016

All times are specified in Local Standard Time (LST). Add 1 hour to adjust for Daylight Saving Time where and when it is observed.

GJOA HAVEN A
NUNAVUT

68°38'08.000" N
95°51'01.000" W
46.90 m
2302337
71597
YHK

Download Data

Hourly Data (October 2016)
Hourly Data Report for October 14, 2016
Temp Definition
°C
Dew Point Temp Definition
°C
Rel Hum Definition
%
Wind Dir Definition
10's deg

Wind Spd Definition
km/h
Visibility Definition
km
Stn Press Definition
kPa
Hmdx Definition


Wind Chill Definition


Weather Definition


TIME
00:00 Legend Double Dagger -6.3 -6.8 96 34 11 2.0 100.34   -11 Snow
01:00 Legend Double Dagger -6.7 -7.2 96 35 13 2.8 100.33   -12 Snow
02:00 Legend Double Dagger -7.0 -7.5 96 35 11 6.4 100.33   -12 Snow
03:00 Legend Double Dagger -9.7 -10.6 93 33 18 2.0 100.32   -17 Snow
04:00 Legend Double Dagger -11.0 -11.7 95 33 24 16.1 100.31   -20 LegendNANA
05:00 Legend Double Dagger -10.3 -11.0 95 34 24 11.3 100.31   -19 Snow
06:00 Legend Double Dagger -14.1 -15.3 91 32 30 9.7 100.31   -25 Snow
07:00 Legend Double Dagger -13.9 -14.8 93 33 32 3.2 100.32   -25 Snow
08:00 Legend Double Dagger -13.1 -14.3 91 32 26 11.3 100.31   -23 Snow
09:00 Legend Double Dagger -13.2 -14.4 91 31 15 16.1 100.32   -21 LegendNANA
10:00 Legend Double Dagger -11.6 -12.5 93 31 22 16.1 100.32   -20 LegendNANA
11:00 Legend Double Dagger -11.5 -12.4 93 32 21 16.1 100.32   -20 LegendNANA
12:00 Legend Double Dagger -12.4 -13.4 92 30 15 16.1 100.32   -20 LegendNANA
13:00 Legend Double Dagger -11.9 -13.0 92 30 11 16.1 100.33   -18 LegendNANA
14:00 Legend Double Dagger -10.8 -11.7 93 30 11 16.1 100.32   -17 LegendNANA
15:00 Legend Double Dagger -9.4 -10.1 95 29 5 11.3 100.33   -12 Snow
16:00 Legend Double Dagger -10.0 -10.7 95   0 3.6 100.31     Snow
17:00 Legend Double Dagger -9.7 -10.6 93   0 12.9 100.27     Snow
18:00 Legend Double Dagger -9.9 -10.6 95 29 4 16.1 100.26   -12 LegendNANA
19:00 Legend Double Dagger -9.7 -10.5 94 25 8 16.1 100.22   -14 Snow
20:00 Legend Double Dagger -10.3 -11.1 94 27 11 16.1 100.21   -16 Snow
21:00 Legend Double Dagger -11.2 -12.3 92 29 9 11.3 100.20   -16 Snow
22:00 Legend Double Dagger -12.2 -13.3 92 27 8 2.4 100.22   -17 Snow
23:00 Legend Double Dagger -10.5 -11.3 94 25 8 12.9 100.19   -15 Snow

Notes on Data Quality.

Legend

  • E = Estimated
  • M = Missing
  • NA = Not Available
  • ‡ = Partner data that is not subject to review by the National Climate Archives
Date modified: